Fort Indiantown Gap, PA

9:29 PM EST on November 19, 2017 (GMT -0500)
Muir Army Air Field

Weather History for KMUI - January, 2014

Change the Weather History Date:

Tuesday, January 14, 2014

  Actual Average Record
Temperature  
Mean Temperature 35 °F -  
Max Temperature 44 °F 33 °F 52 °F (2013)
Min Temperature 26 °F 22 °F 12 °F (1999)
Degree Days  
Heating Degree Days 30    
Moisture  
Dew Point 36 °F    
Average Humidity 100    
Maximum Humidity 100    
Minimum Humidity 99    
Precipitation  
Precipitation 0.23 in - - ()
Sea Level Pressure  
Sea Level Pressure 29.78 in    
Wind  
Wind Speed 2 mph (West)    
Max Wind Speed 7 mph    
Max Gust Speed -    
Visibility 3 miles    
Events Fog , Rain    
Averages and records for this station are not official NWS values.
T = Trace of Precipitation, MM = Missing Value Source: NWS Daily Summary

Daily Weather History Graph

Daily Weather History Graph

Search for Another Location

Airport or City:

Trip Planner

Search our weather history database for the weather conditions in past years. The results will help you decide how hot, cold, wet, or windy it might be!

Date:

Astronomy

Jan. 14, 2014 Rise Set
Actual Time 7:27 AM EST 5:03 PM EST
Civil Twilight 6:57 AM EST 5:33 PM EST
Nautical Twilight 6:24 AM EST 6:06 PM EST
Astronomical Twilight 5:51 AM EST 6:39 PM EST
Moon 4:06 PM EST (1/14) 6:00 AM EST (1/14)
Length of Visible Light 10h 35m
Length of Day
9h 35m
Waxing Gibbous, 98% of the Moon is Illuminated
Jan 14
Waxing Gibbous
Jan 15
Full
Jan 24
Last Quarter
Jan 30
New
Feb 6
First Quarter

Hourly Weather History & Observations

Time (EST) Temp. Windchill Dew Point Humidity Pressure Visibility Wind Dir Wind Speed Gust Speed Precip Events Conditions
12:58 AM 38.7 °F - 38.7 °F 100% 29.84 in 10.0 mi NNE 2.3 mph - N/A   Clear
1:11 AM 41.0 °F - 41.0 °F 100% 29.82 in 10.0 mi ENE 1.2 mph - N/A   Mostly Cloudy
1:19 AM 39.2 °F - 39.2 °F 100% 29.82 in 10.0 mi ENE 2.3 mph - N/A   Scattered Clouds
1:32 AM 39.2 °F - 39.2 °F 100% 29.81 in 10.0 mi NNE 2.3 mph - N/A   Mostly Cloudy
1:58 AM 39.9 °F 37.8 °F 39.9 °F 100% 29.82 in 10.0 mi NE 3.5 mph - 0.00 in Rain Light Rain
2:58 AM 38.3 °F 35.9 °F 38.3 °F 100% 29.82 in 10.0 mi NNE 3.5 mph - 0.01 in   Light Drizzle
3:01 AM 37.4 °F 34.9 °F 37.4 °F 100% 29.80 in 10.0 mi NNE 3.5 mph - N/A   Mostly Cloudy
3:58 AM 38.3 °F - 38.3 °F 100% 29.81 in 9.0 mi North 2.3 mph - 0.00 in   Overcast
4:42 AM 39.2 °F - 39.2 °F 100% 29.78 in 9.0 mi NE 1.2 mph - N/A Rain Light Rain
4:58 AM 38.7 °F - 38.7 °F 100% 29.80 in 6.0 mi NE 2.3 mph - 0.00 in Rain Light Rain
5:01 AM 39.2 °F - 39.2 °F 100% 29.77 in 5.0 mi NE 1.2 mph - N/A   Overcast
5:03 AM 39.2 °F - 39.2 °F 100% 29.78 in 5.0 mi Calm Calm - N/A   Light Drizzle
5:27 AM 37.4 °F - 37.4 °F 100% 29.76 in 2.5 mi North 1.2 mph - N/A   Light Drizzle
5:30 AM 37.4 °F - 37.4 °F 100% 29.76 in 2.5 mi North 2.3 mph - N/A   Mostly Cloudy
5:34 AM 39.2 °F - 39.2 °F 100% 29.76 in 3.0 mi North 2.3 mph - N/A   Mostly Cloudy
5:45 AM 39.2 °F - 39.2 °F 100% 29.76 in 9.0 mi North 1.2 mph - N/A   Light Drizzle
5:58 AM 38.8 °F - 38.8 °F 100% 29.77 in 5.0 mi Calm Calm - 0.00 in   Light Drizzle
5:59 AM 39.2 °F - 39.2 °F 100% 29.75 in 5.0 mi Calm Calm - N/A   Mostly Cloudy
6:30 AM 39.2 °F - 39.2 °F 100% 29.77 in 8.0 mi Calm Calm - N/A   Overcast
6:48 AM 39.2 °F - 39.2 °F 100% 29.77 in 2.5 mi Calm Calm - N/A Rain Light Rain
6:52 AM 39.2 °F - 39.2 °F 100% 29.77 in 1.8 mi Calm Calm - N/A Rain Light Rain
6:54 AM 37.4 °F - 37.4 °F 100% 29.77 in 1.5 mi North 2.3 mph - N/A Rain Light Rain
6:58 AM 38.1 °F - 38.1 °F 100% 29.79 in 1.5 mi North 2.3 mph - 0.02 in Rain Light Rain
7:00 AM 37.4 °F - 37.4 °F 100% 29.77 in 1.5 mi NNE 2.3 mph - N/A Rain Light Rain
7:06 AM 37.4 °F - 37.4 °F 100% 29.77 in 1.8 mi NNE 2.3 mph - N/A Rain Light Rain
7:10 AM 39.2 °F - 39.2 °F 100% 29.77 in 2.0 mi NNE 2.3 mph - N/A   Light Drizzle
7:14 AM 39.2 °F - 39.2 °F 100% 29.78 in 3.0 mi NE 2.3 mph - N/A Rain Light Rain
7:58 AM 39.7 °F 37.6 °F 39.6 °F 99% 29.79 in 3.0 mi ENE 3.5 mph - 0.03 in Rain Light Rain
8:06 AM 39.2 °F 37.0 °F 39.2 °F 100% 29.77 in 3.0 mi ENE 3.5 mph - N/A Rain Light Rain
8:24 AM 39.2 °F - 39.2 °F 100% 29.77 in 3.0 mi NNE 2.3 mph - N/A Rain Light Rain
8:36 AM 39.2 °F - 39.2 °F 100% 29.77 in 2.5 mi NNE 2.3 mph - N/A Rain Light Rain
8:40 AM 39.2 °F - 39.2 °F 100% 29.78 in 2.5 mi NNE 1.2 mph - N/A Rain Light Rain
8:48 AM 41.0 °F - 41.0 °F 100% 29.77 in 1.8 mi NE 2.3 mph - N/A Rain Light Rain
8:52 AM 41.0 °F - 41.0 °F 100% 29.77 in 1.2 mi NE 2.3 mph - N/A Rain Light Rain
8:54 AM 41.0 °F - 41.0 °F 100% 29.77 in 1.0 mi NE 2.3 mph - N/A Rain Light Rain
8:58 AM 41.0 °F 39.0 °F 41.0 °F 100% 29.79 in 0.8 mi NE 3.5 mph - 0.05 in Rain Light Rain
9:00 AM 41.0 °F 39.0 °F 41.0 °F 100% 29.77 in 0.8 mi NNE 3.5 mph - N/A Rain Light Rain
9:02 AM 41.0 °F - 41.0 °F 100% 29.77 in 0.5 mi NNE 2.3 mph - N/A Fog , Rain Light Rain
9:04 AM 41.0 °F - 41.0 °F 100% 29.76 in 3.0 mi Calm Calm - N/A Rain Light Rain
9:17 AM 41.0 °F - 41.0 °F 100% 29.77 in 4.0 mi NE 2.3 mph - N/A   Light Drizzle
9:21 AM 41.0 °F - 41.0 °F 100% 29.77 in 4.0 mi NE 2.3 mph - N/A   Overcast
9:32 AM 41.0 °F - 41.0 °F 100% 29.77 in 5.0 mi Calm Calm - N/A   Light Drizzle
9:51 AM 41.0 °F - 41.0 °F 100% 29.78 in 4.0 mi Calm Calm - N/A Rain Light Rain
9:58 AM 41.0 °F - 41.0 °F 100% 29.79 in 4.0 mi Calm Calm - 0.03 in Rain Light Rain
10:09 AM 41.0 °F - 41.0 °F 100% 29.78 in 4.0 mi Calm Calm - N/A   Light Drizzle
10:28 AM 42.8 °F - 42.8 °F 100% 29.77 in 2.5 mi Calm Calm - N/A   Light Drizzle
10:32 AM 42.8 °F - 42.8 °F 100% 29.76 in 3.0 mi Calm Calm - N/A Rain Light Rain
10:58 AM 42.3 °F - 42.3 °F 100% 29.78 in 3.0 mi Calm Calm - 0.02 in   Light Drizzle
11:14 AM 42.8 °F - 42.8 °F 100% 29.76 in 2.0 mi Calm Calm - N/A Rain Light Rain
11:21 AM 42.8 °F - - N/A% 29.75 in 2.5 mi Calm Calm - N/A   Light Drizzle
11:26 AM 42.8 °F - - N/A% 29.74 in 2.5 mi Variable 2.3 mph - N/A   Overcast
12:00 PM 42.8 °F - - N/A% 29.73 in 2.0 mi WSW 1.2 mph - N/A   Light Drizzle
12:02 PM 42.8 °F - - N/A% 29.73 in 2.0 mi WSW 1.2 mph - N/A   Light Drizzle
12:06 PM 42.8 °F - - N/A% 29.73 in 1.8 mi West 1.2 mph - N/A   Light Drizzle
12:10 PM 42.8 °F - - N/A% 29.73 in 2.0 mi SSW 1.2 mph - N/A Rain Light Rain
12:14 PM 42.8 °F - - N/A% 29.73 in 2.0 mi SW 1.2 mph - N/A Rain Light Rain
12:28 PM 42.8 °F 40.1 °F - N/A% 29.74 in 1.8 mi SSW 4.6 mph - N/A Rain Light Rain
12:30 PM 42.8 °F 40.1 °F - N/A% 29.74 in 1.5 mi SSW 4.6 mph - N/A Rain Light Rain
12:34 PM 42.8 °F 41.1 °F - N/A% 29.73 in 1.8 mi WSW 3.5 mph - N/A Rain Light Rain
12:36 PM 42.8 °F 41.1 °F - N/A% 29.73 in 2.0 mi SW 3.5 mph - N/A Rain Light Rain
12:58 PM 42.8 °F 41.1 °F - N/A% 29.74 in 2.5 mi South 3.5 mph - 0.04 in Rain Light Rain
1:02 PM 42.8 °F 41.1 °F - N/A% 29.72 in 3.0 mi South 3.5 mph - N/A Rain Light Rain
1:12 PM 42.8 °F 41.1 °F - N/A% 29.72 in 2.5 mi SE 3.5 mph - N/A Rain Light Rain
1:14 PM 42.8 °F - - N/A% 29.72 in 1.8 mi SE 2.3 mph - N/A Rain Light Rain
1:16 PM 42.8 °F 41.1 °F - N/A% 29.72 in 1.2 mi SSE 3.5 mph - N/A Rain Light Rain
1:18 PM 42.8 °F - - N/A% 29.72 in 1.0 mi SSE 2.3 mph - N/A Rain Light Rain
1:20 PM 42.8 °F - - N/A% 29.72 in 1.0 mi South 2.3 mph - N/A Rain Light Rain
1:21 PM 42.8 °F - - N/A% 29.72 in 1.0 mi South 1.2 mph - N/A Rain Light Rain
1:23 PM 42.8 °F - - N/A% 29.72 in 1.0 mi Calm Calm - N/A   Overcast
1:25 PM 42.8 °F - - N/A% 29.72 in 1.0 mi Calm Calm - N/A   Overcast
1:27 PM 42.8 °F - - N/A% 29.72 in 1.2 mi Calm Calm - N/A   Overcast
1:29 PM 42.8 °F - - N/A% 29.72 in 1.2 mi West 2.3 mph - N/A   Overcast
1:31 PM 42.8 °F - - N/A% 29.72 in 1.5 mi West 2.3 mph - N/A   Overcast
1:33 PM 42.8 °F 41.1 °F - N/A% 29.72 in 1.8 mi West 3.5 mph - N/A   Overcast
1:34 PM 42.8 °F 41.1 °F - N/A% 29.72 in 2.0 mi West 3.5 mph - N/A   Light Drizzle
1:36 PM 42.8 °F - - N/A% 29.72 in 2.5 mi West 2.3 mph - N/A   Light Drizzle
1:38 PM 42.8 °F - - N/A% 29.72 in 3.0 mi West 2.3 mph - N/A   Light Drizzle
1:40 PM 42.8 °F - - N/A% 29.72 in 3.0 mi WSW 2.3 mph - N/A   Light Drizzle
1:48 PM 42.8 °F 41.1 °F - N/A% 29.72 in 2.5 mi SSW 3.5 mph - N/A   Light Drizzle
1:58 PM 42.8 °F - - N/A% 29.75 in 2.5 mi South 2.3 mph - 0.02 in   Light Drizzle
2:05 PM 42.8 °F - - N/A% 29.73 in 2.5 mi Calm Calm - N/A   Mostly Cloudy
2:09 PM 42.8 °F - - N/A% 29.72 in 1.8 mi Calm Calm - N/A   Mostly Cloudy
2:10 PM 42.8 °F - - N/A% 29.72 in 1.8 mi Calm Calm - N/A   Light Drizzle
2:12 PM 42.8 °F - - N/A% 29.73 in 1.5 mi Calm Calm - N/A   Light Drizzle
2:18 PM 42.8 °F - - N/A% 29.72 in 1.2 mi North 1.2 mph - N/A   Light Drizzle
2:20 PM 42.8 °F - - N/A% 29.72 in 0.8 mi Calm Calm - N/A   Light Drizzle
2:22 PM 42.8 °F - - N/A% 29.72 in 0.5 mi Calm Calm - N/A   Light Drizzle
2:28 PM 42.8 °F - - N/A% 29.72 in 0.2 mi SE 2.3 mph - N/A   Light Drizzle
2:30 PM 42.8 °F - - N/A% 29.72 in 0.5 mi East 1.2 mph - N/A   Light Drizzle
2:33 PM 42.8 °F - - N/A% 29.72 in 0.5 mi Calm Calm - N/A Fog Fog
2:39 PM 42.8 °F - - N/A% 29.72 in 0.8 mi Calm Calm - N/A   Mist
2:43 PM 42.8 °F - - N/A% 29.70 in 1.0 mi East 1.2 mph - N/A   Mist
2:45 PM 42.8 °F - - N/A% 29.69 in 1.2 mi East 2.3 mph - N/A   Overcast
2:47 PM 42.8 °F - - N/A% 29.68 in 1.2 mi ENE 2.3 mph - N/A   Overcast
2:49 PM 42.8 °F - - N/A% 29.69 in 1.0 mi East 2.3 mph - N/A   Mist
2:53 PM 42.8 °F - - N/A% 29.70 in 1.2 mi ESE 2.3 mph - N/A   Overcast
2:55 PM 42.8 °F - - N/A% 29.70 in 1.2 mi SE 2.3 mph - N/A   Overcast
2:58 PM 42.8 °F - - N/A% 29.72 in 1.2 mi East 1.2 mph - 0.01 in   Overcast
3:00 PM 42.8 °F - - N/A% 29.70 in 1.5 mi Calm Calm - N/A   Overcast
3:14 PM 42.8 °F - - N/A% 29.70 in 1.2 mi Calm Calm - N/A   Overcast
3:24 PM 42.8 °F - - N/A% 29.71 in 1.5 mi WSW 1.2 mph - N/A   Overcast
3:32 PM 42.8 °F - - N/A% 29.70 in 1.2 mi SSW 1.2 mph - N/A   Overcast
3:36 PM 42.8 °F - - N/A% 29.70 in 1.0 mi South 2.3 mph - N/A   Mist
3:38 PM 42.8 °F 41.1 °F - N/A% 29.70 in 0.8 mi South 3.5 mph - N/A   Mist
3:44 PM 42.8 °F 40.1 °F - N/A% 29.71 in 0.5 mi SSW 4.6 mph - N/A Fog Fog
3:48 PM 42.8 °F 40.1 °F - N/A% 29.71 in 0.8 mi WSW 4.6 mph - N/A   Mist
3:54 PM 42.8 °F 39.3 °F - N/A% 29.72 in 0.5 mi WSW 5.8 mph - N/A Fog Fog
3:58 PM 42.8 °F 39.3 °F - N/A% 29.74 in 0.5 mi WSW 5.8 mph - N/A Fog Fog
4:00 PM 42.8 °F 39.3 °F - N/A% 29.73 in 0.2 mi SW 5.8 mph - N/A Fog Fog
4:04 PM 42.8 °F 39.3 °F - N/A% 29.74 in 0.5 mi Variable 5.8 mph - N/A Fog Fog
4:14 PM 42.8 °F 39.3 °F - N/A% 29.75 in 0.2 mi West 5.8 mph - N/A Fog Fog
4:20 PM 42.8 °F - - N/A% 29.74 in 0.2 mi West 2.3 mph - N/A   Light Drizzle
4:24 PM 42.8 °F 40.1 °F - N/A% 29.74 in 0.5 mi West 4.6 mph - N/A   Light Drizzle
4:26 PM 42.8 °F 39.3 °F - N/A% 29.74 in 0.8 mi West 5.8 mph - N/A   Light Drizzle
4:28 PM 42.8 °F 39.3 °F - N/A% 29.74 in 1.2 mi West 5.8 mph - N/A   Light Drizzle
4:29 PM 42.8 °F 38.6 °F - N/A% 29.74 in 2.0 mi West 6.9 mph - N/A   Partly Cloudy
4:31 PM 42.8 °F 38.6 °F - N/A% 29.75 in 4.0 mi West 6.9 mph - N/A   Haze
4:58 PM 44.6 °F 40.7 °F - N/A% 29.77 in 10.0 mi WNW 6.9 mph - 0.00 in   Clear
5:58 PM 44.6 °F 41.4 °F 44.6 °F 100% 29.80 in 10.0 mi West 5.8 mph - N/A   Scattered Clouds
6:58 PM 42.4 °F 40.7 °F 42.4 °F 100% 29.84 in 10.0 mi SW 3.5 mph - N/A   Clear
7:58 PM 39.9 °F 37.8 °F 39.9 °F 100% 29.86 in 10.0 mi SW 3.5 mph - N/A   Clear
8:26 PM 35.6 °F - 35.6 °F 100% 29.84 in 2.5 mi Calm Calm - N/A   Clear
8:42 PM 35.6 °F 31.7 °F 35.6 °F 100% 29.85 in 3.0 mi West 4.6 mph - N/A   Clear
8:58 PM 36.3 °F 31.6 °F 36.1 °F 99% 29.88 in 8.0 mi WNW 5.8 mph - N/A   Clear
9:16 PM 32.0 °F 28.7 °F 32.0 °F 100% 29.86 in 1.2 mi South 3.5 mph - N/A   Clear
9:18 PM 32.0 °F 28.7 °F 32.0 °F 100% 29.86 in 0.8 mi South 3.5 mph - N/A   Clear
9:20 PM 32.0 °F 28.7 °F 32.0 °F 100% 29.86 in 0.5 mi SSW 3.5 mph - N/A Fog Fog
9:26 PM 32.0 °F - 32.0 °F 100% 29.86 in 0.2 mi Calm Calm - N/A Fog Fog
9:39 PM 32.0 °F 27.5 °F 32.0 °F 100% 29.87 in 0.2 mi SSE 4.6 mph - N/A Fog Light Freezing Fog
9:58 PM 30.4 °F - 30.4 °F 100% 29.90 in 0.2 mi NW 2.3 mph - N/A Fog Light Freezing Fog
10:10 PM 30.2 °F - 30.2 °F 100% 29.88 in 0.2 mi WNW 1.2 mph - N/A Fog Light Freezing Fog
10:12 PM 30.2 °F - 30.2 °F 100% 29.88 in 0.5 mi SW 1.2 mph - N/A Fog Light Freezing Fog
10:20 PM 30.2 °F 26.7 °F 30.2 °F 100% 29.88 in 0.2 mi WSW 3.5 mph - N/A Fog Light Freezing Fog
10:26 PM 32.0 °F 28.7 °F 32.0 °F 100% 29.88 in 0.5 mi West 3.5 mph - N/A Fog Light Freezing Fog
10:28 PM 32.0 °F - 32.0 °F 100% 29.87 in 0.8 mi West 2.3 mph - N/A   Clear
10:36 PM 28.4 °F 24.6 °F 28.4 °F 100% 29.88 in 0.5 mi South 3.5 mph - N/A Fog Light Freezing Fog
10:58 PM 27.7 °F - 27.7 °F 100% 29.90 in 0.5 mi Calm Calm - N/A Fog Light Freezing Fog
11:02 PM 28.4 °F - 28.4 °F 100% 29.88 in 0.8 mi Calm Calm - N/A   Clear
11:04 PM 28.4 °F - 28.4 °F 100% 29.88 in 1.0 mi NNW 1.2 mph - N/A   Clear
11:06 PM 28.4 °F - 28.4 °F 100% 29.88 in 1.5 mi NW 2.3 mph - N/A   Clear
11:08 PM 28.4 °F - 28.4 °F 100% 29.88 in 2.0 mi Calm Calm - N/A   Clear
11:10 PM 28.4 °F - 28.4 °F 100% 29.89 in 3.0 mi SSW 2.3 mph - N/A   Clear
11:12 PM 28.4 °F 24.6 °F 28.4 °F 100% 29.89 in 2.5 mi SSE 3.5 mph - N/A   Clear
11:14 PM 28.4 °F 24.6 °F 28.4 °F 100% 29.89 in 1.8 mi SSE 3.5 mph - N/A   Clear
11:16 PM 28.4 °F 24.6 °F 28.4 °F 100% 29.89 in 1.0 mi South 3.5 mph - N/A   Clear
11:18 PM 28.4 °F 24.6 °F 28.4 °F 100% 29.89 in 0.8 mi SSE 3.5 mph - N/A   Clear
11:26 PM 28.4 °F - 28.4 °F 100% 29.89 in 1.0 mi Variable 1.2 mph - N/A   Clear
11:28 PM 28.4 °F - 28.4 °F 100% 29.89 in 1.2 mi NNW 2.3 mph - N/A   Clear
11:30 PM 28.4 °F - 28.4 °F 100% 29.89 in 1.2 mi North 1.2 mph - N/A   Clear
11:32 PM 26.6 °F - 26.6 °F 100% 29.89 in 1.5 mi Calm Calm - N/A   Clear
11:34 PM 26.6 °F - 26.6 °F 100% 29.89 in 2.0 mi Calm Calm - N/A   Clear
11:42 PM 28.4 °F - 28.4 °F 100% 29.89 in 1.5 mi Variable 1.2 mph - N/A   Clear
11:44 PM 28.4 °F - 28.4 °F 100% 29.89 in 1.2 mi West 2.3 mph - N/A   Clear
11:46 PM 28.4 °F 23.3 °F 28.4 °F 100% 29.89 in 1.0 mi West 4.6 mph - N/A   Clear
11:50 PM 28.4 °F 24.6 °F 28.4 °F 100% 29.89 in 1.2 mi West 3.5 mph - N/A   Clear
11:52 PM 28.4 °F 23.3 °F 28.4 °F 100% 29.89 in 1.5 mi WSW 4.6 mph - N/A   Clear
11:54 PM 28.4 °F 23.3 °F 28.4 °F 100% 29.89 in 2.5 mi WSW 4.6 mph - N/A   Clear
11:56 PM 28.4 °F 23.3 °F 28.4 °F 100% 29.89 in 6.0 mi WSW 4.6 mph - N/A   Clear
11:58 PM 28.9 °F 23.9 °F 28.9 °F 100% 29.91 in 7.0 mi WSW 4.6 mph - N/A   Clear